Regional Weather Roundup
Issued by NWS State College, PA

Home | Current Version | Previous Version | Graphics & Text | Print | Product List | Glossary Off
Versions: 1 2 3 4 5 6 7 8 9 10 11 12 13 14 15 16 17 18 19 20 21 22 23 24 25 26 27 28 29 30 31 32 33 34 35 36 37 38 39 40 41 42 43 44 45 46 47 48 49 50

000
ASUS41 KCTP 210603
RWRCTP

REGIONAL WEATHER ROUNDUP
NATIONAL WEATHER SERVICE STATE COLLEGE PA
100 AM EST SUN DEC 21 2014

Note: "fair" indicates few or no clouds below 12,000 feet with no
significant weather and/or obstructions to visibility.

* = STATION THAT DOES NOT REPORT PRECIPITATION /E.G. RAIN...SNOW...ETC/
    THUNDER OR FOG.

PAZ002>004-007>009-013>016-020>023-029>032-210700-
WESTERN PENNSYLVANIA

CITY           SKY/WX    TMP DP  RH WIND       PRES   REMARKS
ERIE           CLOUDY    30  21  69 S6        30.26F
MEADVILLE      CLOUDY    27  21  78 CALM      30.22F
FRANKLIN*      CLOUDY    27  19  74 CALM      30.23F
NEW CASTLE       N/A     28  23  81 CALM      30.26F
BEAVER COUNTY  NOT AVBL
BUTLER*        PTCLDY    25  21  86 CALM      30.25F
PITTSBURGH INT CLOUDY    27  21  78 CALM      30.25S
PITTSBURGH     CLOUDY    28  18  66 CALM      30.24S
INDIANA*       CLOUDY    27  25  93 CALM      30.27S
LATROBE        CLOUDY    27  25  93 CALM      30.27S
WASHINGTON CO* NOT AVBL
$$

PAZ004>006-010>012-017>019-024>028-033>037-041-042-045-046-049>053-210700-
CENTRAL PENNSYLVANIA

CITY           SKY/WX    TMP DP  RH WIND       PRES   REMARKS
BRADFORD       CLOUDY    23  19  85 NW5       30.17F
DUBOIS         CLOUDY    25  20  81 CALM      30.20R
CLEARFIELD     CLOUDY    26  19  74 CALM      30.22F
JOHNSTOWN      CLOUDY    23  18  81 CALM      30.17S
ALTOONA        CLOUDY    25  22  88 CALM      30.22F
STATE COLLEGE  CLOUDY    27  22  82 CALM      30.23F
WILLIAMSPORT   CLOUDY    31  20  63 W8        30.27R
SELINSGROVE    CLOUDY    31  22  69 NW5       30.28S
FT INDIANTOWN  CLOUDY    29  22  74 CALM      30.28R
CAPITAL CITY   CLOUDY    29  22  75 W3        30.29S
HARRISBURG     CLOUDY    29  22  75 NW6       30.29S
YORK           CLOUDY    28  23  81 CALM      30.28S
$$

PAZ038>040-043-044-047-048-054-055-060>062-067>071-210700-
EASTERN PENNSYLVANIA

CITY           SKY/WX    TMP DP  RH WIND       PRES   REMARKS
SCRANTON       CLOUDY    30  19  63 N5        30.23F
MOUNT POCONO   CLOUDY    24  18  77 NW3       30.17F
ALLENTOWN      CLOUDY    31  22  69 CALM      30.27F
QUAKERTOWN*    CLOUDY    30  23  74 CALM      30.27F
READING        CLOUDY    31  22  69 NW5       30.28S
LANCASTER      CLOUDY    28  23  81 W5        30.28S
COATESVILLE    CLOUDY    32  25  74 CALM      30.26F
POTTSTOWN      CLOUDY    31  20  63 CALM      30.29F
BLUE BELL      CLOUDY    32  27  80 CALM      30.27F
DOYLESTOWN     CLOUDY    29  22  75 CALM      30.27F
WILLOW GROVE   NOT AVBL
NORTH PHILA    CLOUDY    34  21  59 N3        30.30F
PHILADELPHIA   CLOUDY    34  21  59 N5        30.30F
$$


USA.gov is the U.S. government's official web portal to all federal, state and local government web resources and services.